Tracking 19572 objects as of 23-Feb-2019
HD Live streaming from Space Station
objects crossing your sky now

GALAXY 1R

Track GALAXY 1R now!
GALAXY 1R is classified as:


NORAD ID: 23016
Int'l Code: 1994-013A
Perigee: 36,060.2 km
Apogee: 36,120.2 km
Inclination: 9.7 °
Period: 1,451.3 minutes
Semi major axis: 42461 km
RCS: 8.3555 m2 (large)
Launch date: February 19, 1994
Source: United States (US)
Launch site: AIR FORCE EASTERN TEST RANGE (AFETR)

24 C-band; North America, Caribbean.
aabbcc
Your satellite tracking list
Your tracking list is empty




NASA's NSSDC Master Catalog

Two Line Element Set (TLE):
1 23016U 94013A   19053.79790727 -.00000279  00000-0  00000+0 0  9993
2 23016   9.7094  39.4710 0007074 284.3209  77.5161  0.99223511 90719
Source of the keplerian elements: AFSPC